When you browse on this site, cookies collect data to enhance your experience and personalize the content and advertising you see.
Visit our Privacy Policy to learn more. By continuing to use the site, you agree to this use of cookies and data.
  • En España
  • Lista de países
  • Para 7 días
  • Temperatura del agua
  • Mapa Satelital
  • El tiempo en el mapa
  • Informadores
  • user-avatar
    Iniciar sesión

    Tiempo cada hora Debricy

    Hoy, 21 Julio, Domingo

    Tiempo Temperatura Precipitaciones Viento Presión Humedad
    00:00 +13°C° 0 mm 2 mps 744 mmHg 83%
    01:00 +13°C° 0 mm 2 mps 745 mmHg 86%
    02:00 +12°C° 0 mm 2 mps 745 mmHg 88%
    03:00 +13°C° 0 mm 1 mps 745 mmHg 89%
    04:00 +13°C° 0 mm 1 mps 745 mmHg 89%
    05:00 +13°C° 0 mm 1 mps 745 mmHg 90%
    06:00 +15°C° 0 mm 1 mps 745 mmHg 85%
    07:00 +18°C° 0 mm 1 mps 745 mmHg 80%
    08:00 +20°C° 0 mm 1 mps 746 mmHg 75%
    09:00 +20°C° 0 mm 2 mps 746 mmHg 70%
    10:00 +21°C° 0 mm 2 mps 746 mmHg 66%
    11:00 +24°C° 0 mm 2 mps 746 mmHg 62%
    12:00 +24°C° 0 mm 2 mps 746 mmHg 61%
    13:00 +24°C° 0 mm 2 mps 745 mmHg 60%
    14:00 +25°C° 0 mm 3 mps 745 mmHg 59%
    15:00 +25°C° 0 mm 2 mps 745 mmHg 62%
    16:00 +25°C° 0 mm 2 mps 745 mmHg 64%
    17:00 +24°C° 0 mm 2 mps 745 mmHg 67%
    18:00 +21°C° 0 mm 2 mps 745 mmHg 73%
    19:00 +21°C° 0 mm 1 mps 745 mmHg 79%
    20:00 +19°C° 0 mm 1 mps 745 mmHg 85%
    21:00 +18°C° 0 mm 1 mps 745 mmHg 86%
    22:00 +16°C° 0 mm 1 mps 745 mmHg 87%
    23:00 +16°C° 0 mm 1 mps 745 mmHg 88%

    Mañana, 22 Julio, Lunes

    Tiempo Temperatura Precipitaciones Viento Presión Humedad
    00:00 +15°C° 0 mm 1 mps 745 mmHg 88%
    01:00 +15°C° 0 mm 1 mps 745 mmHg 89%
    02:00 +14°C° 0 mm 0 mps 745 mmHg 89%
    03:00 +14°C° 0 mm 0 mps 744 mmHg 89%
    04:00 +14°C° 0 mm 0 mps 744 mmHg 88%
    05:00 +14°C° 0 mm 0 mps 744 mmHg 88%
    06:00 +16°C° 0 mm 0 mps 744 mmHg 83%
    07:00 +20°C° 0 mm 1 mps 744 mmHg 78%
    08:00 +21°C° 0 mm 1 mps 744 mmHg 73%
    09:00 +22°C° 0 mm 1 mps 744 mmHg 70%
    10:00 +23°C° 0 mm 1 mps 744 mmHg 66%
    11:00 +24°C° 0 mm 2 mps 743 mmHg 63%
    12:00 +24°C° 0.5 mm 2 mps 743 mmHg 64%
    13:00 +24°C° 0.5 mm 2 mps 743 mmHg 66%
    14:00 +24°C° 0.5 mm 2 mps 743 mmHg 68%
    15:00 +23°C° 0.5 mm 2 mps 743 mmHg 76%
    16:00 +20°C° 0.5 mm 2 mps 743 mmHg 85%
    17:00 +18°C° 0.5 mm 2 mps 742 mmHg 93%
    18:00 +19°C° 0.4 mm 1 mps 742 mmHg 94%
    19:00 +18°C° 0.4 mm 1 mps 742 mmHg 95%
    20:00 +18°C° 0.4 mm 1 mps 742 mmHg 96%
    21:00 +16°C° 0.9 mm 1 mps 742 mmHg 96%
    22:00 +16°C° 0.9 mm 2 mps 742 mmHg 96%
    23:00 +16°C° 0.9 mm 2 mps 742 mmHg 97%

    Pasado mañana, 23 Julio, Martes

    Tiempo Temperatura Precipitaciones Viento Presión Humedad
    00:00 +16°C° 1.2 mm 2 mps 742 mmHg 97%
    01:00 +15°C° 1.2 mm 2 mps 741 mmHg 98%
    02:00 +15°C° 1.2 mm 2 mps 741 mmHg 98%
    03:00 +15°C° 0.8 mm 2 mps 741 mmHg 98%
    04:00 +14°C° 0.8 mm 3 mps 741 mmHg 98%
    05:00 +14°C° 0.8 mm 3 mps 741 mmHg 98%
    06:00 +14°C° 1 mm 3 mps 741 mmHg 98%
    07:00 +14°C° 1 mm 3 mps 741 mmHg 98%
    08:00 +16°C° 1 mm 3 mps 741 mmHg 97%
    09:00 +16°C° 0.9 mm 2 mps 741 mmHg 97%
    10:00 +17°C° 0.9 mm 2 mps 741 mmHg 96%
    11:00 +17°C° 0.9 mm 2 mps 742 mmHg 95%
    12:00 +17°C° 0.1 mm 2 mps 742 mmHg 95%
    13:00 +17°C° 0.1 mm 2 mps 742 mmHg 94%
    14:00 +18°C° 0.1 mm 1 mps 742 mmHg 94%
    15:00 +18°C° 0 mm 1 mps 742 mmHg 93%
    16:00 +18°C° 0 mm 1 mps 742 mmHg 91%
    17:00 +19°C° 0 mm 1 mps 742 mmHg 90%
    18:00 +18°C° 0 mm 1 mps 742 mmHg 92%
    19:00 +17°C° 0 mm 2 mps 742 mmHg 93%
    20:00 +16°C° 0 mm 2 mps 742 mmHg 94%
    21:00 +16°C° 0 mm 2 mps 742 mmHg 94%
    22:00 +16°C° 0 mm 1 mps 743 mmHg 94%
    23:00 +15°C° 0 mm 1 mps 743 mmHg 94%

    24 Julio, Miércoles

    Tiempo Temperatura Precipitaciones Viento Presión Humedad
    00:00 +15°C° 0 mm 1 mps 743 mmHg 95%
    01:00 +14°C° 0 mm 1 mps 743 mmHg 95%
    02:00 +14°C° 0 mm 1 mps 743 mmHg 95%
    03:00 +14°C° 0 mm 1 mps 743 mmHg 95%
    04:00 +14°C° 0 mm 1 mps 743 mmHg 95%
    05:00 +14°C° 0 mm 1 mps 743 mmHg 95%
    06:00 +16°C° 0 mm 2 mps 743 mmHg 90%
    07:00 +18°C° 0 mm 2 mps 743 mmHg 85%
    08:00 +19°C° 0 mm 2 mps 744 mmHg 81%
    09:00 +21°C° 0 mm 2 mps 744 mmHg 72%
    10:00 +22°C° 0 mm 3 mps 744 mmHg 64%
    11:00 +25°C° 0 mm 3 mps 744 mmHg 55%
    12:00 +25°C° 0 mm 3 mps 744 mmHg 55%
    13:00 +26°C° 0 mm 3 mps 744 mmHg 54%
    14:00 +26°C° 0 mm 3 mps 744 mmHg 53%
    15:00 +26°C° 0 mm 3 mps 744 mmHg 57%
    16:00 +25°C° 0 mm 2 mps 744 mmHg 62%
    17:00 +25°C° 0 mm 2 mps 744 mmHg 66%
    18:00 +23°C° 0 mm 2 mps 744 mmHg 70%
    19:00 +20°C° 0 mm 2 mps 744 mmHg 74%
    20:00 +19°C° 0 mm 2 mps 744 mmHg 78%
    21:00 +18°C° 0 mm 2 mps 745 mmHg 78%
    22:00 +17°C° 0 mm 2 mps 745 mmHg 79%
    23:00 +16°C° 0 mm 2 mps 745 mmHg 79%

    25 Julio, Jueves

    Tiempo Temperatura Precipitaciones Viento Presión Humedad
    00:00 +15°C° 0 mm 2 mps 745 mmHg 80%
    01:00 +15°C° 0 mm 2 mps 745 mmHg 82%
    02:00 +14°C° 0 mm 2 mps 745 mmHg 84%
    03:00 +14°C° 0 mm 2 mps 745 mmHg 85%
    04:00 +14°C° 0 mm 2 mps 745 mmHg 85%
    05:00 +14°C° 0 mm 2 mps 746 mmHg 86%
    06:00 +16°C° 0 mm 2 mps 746 mmHg 82%
    07:00 +18°C° 0 mm 2 mps 746 mmHg 78%
    08:00 +19°C° 0 mm 2 mps 746 mmHg 74%
    09:00 +21°C° 0 mm 2 mps 746 mmHg 69%
    10:00 +23°C° 0 mm 2 mps 746 mmHg 64%
    11:00 +24°C° 0 mm 3 mps 746 mmHg 59%
    12:00 +25°C° 0 mm 3 mps 746 mmHg 56%
    13:00 +26°C° 0 mm 2 mps 746 mmHg 53%
    14:00 +26°C° 0 mm 2 mps 746 mmHg 49%
    15:00 +26°C° 0 mm 2 mps 746 mmHg 53%
    16:00 +26°C° 0 mm 2 mps 746 mmHg 57%
    17:00 +26°C° 0 mm 2 mps 746 mmHg 61%
    18:00 +24°C° 0 mm 2 mps 746 mmHg 65%
    19:00 +22°C° 0 mm 1 mps 746 mmHg 70%
    20:00 +20°C° 0 mm 1 mps 746 mmHg 74%
    21:00 +19°C° 0 mm 1 mps 746 mmHg 76%
    22:00 +18°C° 0 mm 1 mps 746 mmHg 79%
    23:00 +16°C° 0 mm 1 mps 746 mmHg 81%

    26 Julio, Viernes

    Tiempo Temperatura Precipitaciones Viento Presión Humedad
    00:00 +16°C° 0 mm 1 mps 746 mmHg 83%
    01:00 +16°C° 0 mm 1 mps 746 mmHg 85%
    02:00 +15°C° 0 mm 1 mps 746 mmHg 87%
    03:00 +15°C° 0 mm 2 mps 746 mmHg 89%
    04:00 +15°C° 0 mm 2 mps 746 mmHg 91%
    05:00 +15°C° 0 mm 2 mps 746 mmHg 92%
    06:00 +17°C° 0 mm 2 mps 746 mmHg 88%
    07:00 +19°C° 0 mm 2 mps 746 mmHg 84%
    08:00 +21°C° 0 mm 2 mps 746 mmHg 80%
    09:00 +22°C° 0 mm 3 mps 746 mmHg 73%
    10:00 +24°C° 0 mm 3 mps 746 mmHg 65%
    11:00 +25°C° 0 mm 4 mps 746 mmHg 58%
    12:00 +25°C° 0 mm 4 mps 746 mmHg 56%
    13:00 +26°C° 0 mm 4 mps 746 mmHg 55%
    14:00 +26°C° 0 mm 4 mps 745 mmHg 53%
    15:00 +25°C° 0 mm 3 mps 745 mmHg 58%
    16:00 +25°C° 0 mm 3 mps 745 mmHg 63%
    17:00 +25°C° 0 mm 3 mps 745 mmHg 68%
    18:00 +22°C° 0 mm 3 mps 745 mmHg 71%
    19:00 +20°C° 0 mm 3 mps 745 mmHg 74%
    20:00 +19°C° 0 mm 3 mps 745 mmHg 77%
    21:00 +18°C° 0 mm 3 mps 745 mmHg 80%
    22:00 +16°C° 0 mm 3 mps 745 mmHg 82%
    23:00 +14°C° 0 mm 3 mps 745 mmHg 85%
    Mostrar más